COSMOS 1375 DEB

Satellite information

Favourite Embed

Satellite Type and Status

DEBRISIN ORBIT

Key statistics

Satellite COSMOS 1375 DEB at a glance.

Uptime

15844

Days in orbit

Revolutions

≈ 13.6

Per day

Orbit

LEO

Low Earth Orbit

Inclination

65.8

Latest

Satellite identification and parameters

Extended collection of information and parameters for COSMOS 1375 DEB.

Object identification

Identified? True

Debris? True

Object name: COSMOS 1375 DEB

International designator: 1982-055V

Object number (NORAD): 16381

Object ID (CCSDS): 16381

Country: COMMONWEALTH OF INDEPENDENT STATES (CIS)

Current information (Y/N): Y

RCS size: MEDIUM

Orbital parameters

Period: 105.598 minutes

Inclination: 65.8359 deg

SMA: 7400.57 km

Apoapsis: 1075.806 km

Periapsis: 969.063 km

RAAN: 253.9012 deg

Eccentricy: 0.00721181

Argument of periapsis: 268.6882 deg

Mean anomaly: 194.4399 deg

Mean motion: 13.63656581 rev/day

Mean motion (dot): -0.00000032 rev/day2

B* drag term: 0.000057548193 1/REarth

Two-line elements (TLE)

Creation date: Oct. 21, 2025, 6:24 p.m.

Reference frame: TEME

Reference center: EARTH

Epoch: Oct. 21, 2025, 5:47 a.m. UTC

TLE line 0: 0 COSMOS 1375 DEB

TLE line 1: 1 16381U 82055V 25294.24147686 -.00000032 00000-0 57548-4 0 9998

TLE line 2: 2 16381 65.8359 253.9012 0072118 268.6882 194.4399 13.63656581991415

Live tracking on map

Real-time ground track for satellite COSMOS 1375 DEB.

In-orbit conjunctions

A list of the most updated potential collisions computed for object COSMOS 1375 DEB.

Target Orbit TCA Probability of collision Miss distance Type
COSMOS 252 DEB LEO 2024-09-24 07:29:13 0.0006895439 336.0 (m) DEBRIS

Associated space launch

ASAT target satellite

COSMOS 1375 DEB was lifted into orbit during the mission ‘Kosmos-3M | DS-P1-M 16’, on board a Kosmos-3M space rocket.

The launch took place on June 6, 1982, 5:10 p.m. from 132/2.

For more information about the launch, click the button.

Launch to space Kosmos-3M | DS-P1-M 16
Kosmos-3M | DS-P1-M 16

Agency: N/A

Status: Launch Successful

Launch date: June 6, 1982, 5:10 p.m. UTC

Rocket: Kosmos-3M

Launch pad: 132/2

Location: Plesetsk Cosmodrome, Russian Federation

...

Latest news about this satellite

There are no fresh news available about this satellite. Check back as we update our databases every day.


Newsletter sign-up

Weekly statistics, charts and insights to help you stay on top of the space industry.